Gulkana, AK

2:32 PM AKDT on May 25, 2017 (GMT -0800)
Gulkana

Weather History for PAGK - July, 2013

Change the Weather History Date:

Tuesday, July 9, 2013

  Actual Average Record
Temperature  
Mean Temperature 54 °F -  
Max Temperature 64 °F 70 °F 87 °F (1951)
Min Temperature 45 °F 45 °F -7 °F (1999)
Degree Days  
Heating Degree Days 10    
Growing Degree Days 4 (Base 50)    
Moisture  
Dew Point 46 °F    
Average Humidity 76    
Maximum Humidity 97    
Minimum Humidity 46    
Precipitation  
Precipitation 0.02 in - - ()
Sea Level Pressure  
Sea Level Pressure 29.91 in    
Wind  
Wind Speed 5 mph (SSW)    
Max Wind Speed 13 mph    
Max Gust Speed -    
Visibility 10 miles    
Events Rain    
Averages and records for this station are not official NWS values.
T = Trace of Precipitation, MM = Missing Value Source: NWS Daily Summary

Daily Weather History Graph

Daily Weather History Graph

Search for Another Location

Airport or City:

Trip Planner

Search our weather history database for the weather conditions in past years. The results will help you decide how hot, cold, wet, or windy it might be!

Date:

Astronomy

Jul. 09, 2013 Rise Set
Actual Time 4:10 AM AKDT 11:21 PM AKDT
Civil Twilight 2:19 AM AKDT 1:14 AM AKDT
Nautical Twilight Sun does not set Sun does not set
Astronomical Twilight Sun does not set Sun does not set
Moon 6:42 AM AKDT (7/9) 10:54 PM AKDT (7/9)
Length of Visible Light 22h 55m
Length of Day
19h 11m
New Moon, 2% of the Moon is Illuminated
Jul 9
New Moon
Jul 15
First Quarter
Jul 22
Full
Jul 29
Last Quarter
Aug 6
New

Hourly Weather History & Observations

Time (AKDT) Temp. Dew Point Humidity Pressure Visibility Wind Dir Wind Speed Gust Speed Precip Events Conditions
12:53 AM 50.0 °F 43.0 °F 77% 29.83 in 10.0 mi South 6.9 mph - N/A   Overcast
1:53 AM 48.0 °F 46.0 °F 93% 29.85 in 9.0 mi SSE 8.1 mph - 0.04 in Rain Light Rain
2:53 AM 46.9 °F 46.0 °F 97% 29.86 in 10.0 mi SSE 8.1 mph - 0.06 in Rain Light Rain
3:53 AM 46.9 °F 46.0 °F 97% 29.87 in 10.0 mi South 5.8 mph - 0.01 in   Overcast
4:53 AM 45.0 °F 44.1 °F 97% 29.87 in 10.0 mi Calm Calm - N/A   Overcast
5:53 AM 46.9 °F 45.0 °F 93% 29.88 in 10.0 mi Calm Calm - N/A   Overcast
6:04 AM 46.9 °F 46.0 °F 97% 29.87 in 10.0 mi Calm Calm - N/A   Overcast
6:53 AM 46.9 °F 46.0 °F 97% 29.89 in 10.0 mi SSE 3.5 mph - N/A   Overcast
7:53 AM 48.0 °F 45.0 °F 89% 29.91 in 10.0 mi SW 4.6 mph - 0.01 in Rain Light Rain
8:53 AM 50.0 °F 45.0 °F 83% 29.92 in 10.0 mi South 4.6 mph - 0.00 in   Overcast
9:53 AM 53.1 °F 45.0 °F 74% 29.91 in 10.0 mi Calm Calm - 0.00 in   Overcast
10:53 AM 57.0 °F 46.0 °F 67% 29.90 in 10.0 mi Calm Calm - N/A   Overcast
11:53 AM 57.0 °F 42.1 °F 57% 29.91 in 10.0 mi West 8.1 mph - 0.00 in   Overcast
12:53 PM 60.1 °F 42.1 °F 51% 29.90 in 10.0 mi Variable 4.6 mph - N/A   Overcast
1:53 PM 61.0 °F 43.0 °F 52% 29.90 in 10.0 mi Variable 5.8 mph - N/A   Overcast
2:53 PM 63.0 °F 42.1 °F 46% 29.90 in 10.0 mi Variable 3.5 mph - N/A   Mostly Cloudy
3:53 PM 59.0 °F 45.0 °F 60% 29.92 in 10.0 mi NNE 12.7 mph - 0.00 in Rain Light Rain
4:53 PM 60.1 °F 46.9 °F 62% 29.92 in 10.0 mi SSE 3.5 mph - 0.02 in   Mostly Cloudy
5:53 PM 62.1 °F 46.9 °F 58% 29.92 in 10.0 mi Calm Calm - N/A   Mostly Cloudy
6:53 PM 57.9 °F 46.9 °F 67% 29.94 in 10.0 mi Calm Calm - 0.00 in   Mostly Cloudy
7:53 PM 59.0 °F 46.9 °F 64% 29.94 in 10.0 mi Calm Calm - N/A   Mostly Cloudy
8:53 PM 55.9 °F 46.0 °F 69% 29.94 in 10.0 mi West 6.9 mph - N/A   Mostly Cloudy
9:29 PM 54.0 °F 48.0 °F 80% 29.94 in 10.0 mi WNW 4.6 mph - 0.00 in Rain Light Rain
9:53 PM 53.1 °F 48.9 °F 86% 29.96 in 10.0 mi West 6.9 mph - 0.00 in Rain Light Rain
10:53 PM 53.1 °F 48.9 °F 86% 29.97 in 10.0 mi West 3.5 mph - 0.03 in   Overcast
11:53 PM 52.0 °F 48.0 °F 86% 29.98 in 10.0 mi Calm Calm - 0.01 in Rain Light Rain